Regional Weather Roundup
Issued by NWS

Home | Current Version | Previous Version | Text Only | Print | Product List | Glossary Off
Versions: 1 2 3 4 5 6 7 8 9 10 11 12 13 14 15 16 17 18 19 20 21 22 23 24 25 26 27 28 29 30 31 32 33 34 35 36 37 38 39 40 41 42 43 44 45 46 47 48 49 50

000
ASUS43 KFSD 212010
RWRSD

WEATHER ROUNDUP FOR SOUTH DAKOTA
NATIONAL WEATHER SERVICE SIOUX FALLS SD
200 PM CST FRI NOV 21 2014

NOTE: "FAIR" INDICATES FEW OR NO CLOUDS BELOW 12,000 FEET WITH NO
SIGNIFICANT WEATHER AND/OR OBSTRUCTIONS TO VISIBILITY.


SDZ001>005-009-010-012>017-212100-
NORTHWEST AND NORTH CENTRAL SOUTH DAKOTA

CITY           SKY/WX    TMP DP  RH WIND       PRES   REMARKS
BUFFALO          N/A     49  27  42 W25G33    29.71F
FAITH            N/A     50  27  40 W12       29.78F
MOBRIDGE       CLOUDY    38  28  67 SE6       29.74F
$$

SDZ012>016-024>037-041>051-057-063-072>074-212100-
SOUTHWEST AND SOUTH CENTRAL SOUTH DAKOTA

CITY           SKY/WX    TMP DP  RH WIND       PRES   REMARKS
RAPID CTY ARPT PTSUNNY   49  29  46 SE3       29.81F
PIERRE         PTSUNNY   32  23  69 SW6       29.81F WCI  26
CUSTER         MOSUNNY   45  20  36 CALM      29.80F
ELLSWORTH AFB  MOSUNNY   53  24  32 SE3       29.81F
PHILIP         CLOUDY    55  29  36 W6        29.82F
PINE RIDGE     PTSUNNY   47  29  49 NW5       29.85F
SPEARFISH      FAIR      50  25  37 CALM      29.83S
WINNER         FAIR      45  31  58 SW8       29.83F
$$

SDZ004>011-016>023-039-040-212100-
NORTHEAST SOUTH DAKOTA

CITY           SKY/WX    TMP DP  RH WIND       PRES   REMARKS
ABERDEEN       MOSUNNY   31  24  75 S16       29.81F WCI  20
WATERTOWN      PTSUNNY   32  25  75 S17G26    29.83F WCI  21
SISSETON         N/A     33  24  69 SW20      29.79F WCI  21
$$

SDZ017-020-022-023-036>040-048>070-212100-
SOUTHEAST SOUTH DAKOTA

CITY           SKY/WX    TMP DP  RH WIND       PRES   REMARKS
SIOUX FALLS    PTSUNNY   34  25  69 S17G25    29.93F WCI  23
HURON          PTSUNNY   37  28  70 S13       29.85F
CHAMBERLAIN    PTSUNNY   40  29  64 SW7       29.83F
MITCHELL       PTSUNNY   40  30  67 S12       29.87F
YANKTON        PTSUNNY   39  27  60 S17G26    29.93F
$$

ABBREVIATIONS USED IN REMARKS
   TC - TEMPERATURE IN CELSIUS
  WCI - WIND CHILL INDEX
   HX - HEAT INDEX
  VSB - VISIBILITY




USA.gov is the U.S. government's official web portal to all federal, state and local government web resources and services.